Regional Weather Roundup
Issued by NWS Wilmington, NC

Current Version | Previous Version | Text Only | Print | Product List | Glossary On
Versions: 1 2 3 4 5 6 7 8 9 10 11 12 13 14 15 16 17 18 19 20 21 22 23 24 25 26 27 28 29 30 31 32 33 34 35 36 37 38 39 40 41 42 43 44 45 46 47 48 49 50
000
ASUS42 KILM 280113
RWRILM
RWRILM
REGIONAL HOURLY WEATHER ROUNDUP
NATIONAL WEATHER SERVICE WILMINGTON NC
900 PM EDT MON APR 27 2015

NOTE: "FAIR" INDICATES FEW OR NO CLOUDS BELOW 12,000 FEET WITH NO
SIGNIFICANT WEATHER AND/OR OBSTRUCTIONS TO VISIBILITY.

...............WFO WILMINGTON COUNTY WARNING AREA...............

......COASTAL NC AND SC COUNTIES......

CITY           SKY/WX    TMP DP  RH WIND       PRES   REMARKS
WILMINGTON     MOCLDY    60  47  61 CALM      29.83R
N MYRTLE BEACH CLOUDY    60  49  66 NW3       29.84R
MYRTLE BEACH   CLEAR     63  48  59 NW5       29.86R

......INLAND NC AND SC COUNTIES.......

CITY           SKY/WX    TMP DP  RH WIND       PRES   REMARKS
LUMBERTON      MOCLDY    57  46  66 NW5       29.85R
ELIZABETHTOWN  MOCLDY    62  41  46 CALM      29.85R
WHITEVILLE     MOCLDY    58  47  65 CALM      29.84R
FLORENCE       CLOUDY    61  47  59 CALM      29.85R
DARLINGTON     MOCLDY    59  48  67 CALM      29.87R

....................REST OF NORTH CAROLINA......................

.........EASTERN NC.........

CITY           SKY/WX    TMP DP  RH WIND       PRES   REMARKS
CAPE HATTERAS  CLOUDY    51  38  60 NE6       29.82R
JACKSONVILLE   MOCLDY    54  43  66 CALM      29.84R
MOREHEAD CITY  PTCLDY    60  46  59 NW7       29.82R
KENANSVILLE    MOCLDY    57  43  60 CALM      29.85R
NEW BERN       MOCLDY    56  43  61 CALM      29.84R
ELIZABETH CITY CLOUDY    56  42  59 CALM      29.84R

.........CENTRAL NC.........

CITY           SKY/WX    TMP DP  RH WIND       PRES   REMARKS
RALEIGH DURHAM PTCLDY    58  31  35 VRB5      29.90R
ROCKY MOUNT    CLOUDY    61  37  41 NW10      29.86R
ROANOKE RAPIDS NOT AVBL
FAYETTEVILLE   MOCLDY    63  36  36 N13       29.86R
HOFFMAN        MOCLDY    59  39  47 N7        29.91R

.........WESTERN NC.........

CITY           SKY/WX    TMP DP  RH WIND       PRES   REMARKS
CHARLOTTE      MOCLDY    61  33  35 NE9       29.89R
GREENSBORO     PTCLDY    55  30  38 CALM      29.91R
HICKORY        NOT AVBL
BOONE          NOT AVBL
ASHEVILLE      NOT AVBL

.....................REST OF SOUTH CAROLINA.....................

.........EASTERN SC.........

CITY           SKY/WX    TMP DP  RH WIND       PRES   REMARKS
CHARLESTON     MOCLDY    64  50  60 CALM      29.86R
BEAUFORT MCAS  MOCLDY    63  54  72 CALM      29.87R
HILTON HEAD    CLOUDY    63  57  82 CALM      29.88R

.........CENTRAL SC.........

CITY           SKY/WX    TMP DP  RH WIND       PRES   REMARKS
COLUMBIA       CLOUDY    64  51  62 SW3       29.86R
ORANGEBURG     CLOUDY    62  50  64 CALM      29.86R
SUMTER SHAW    CLOUDY    62  50  64 MISG      29.84R

.........WESTERN SC.........

CITY           SKY/WX    TMP DP  RH WIND       PRES   REMARKS
GREENVILLE     NOT AVBL
ROCK HILL      MOCLDY    56  44  64 NE5       29.88R
ANDERSON       CLOUDY    61  48  62 E3        29.86R
CLEMSON        NOT AVBL
GREENWOOD      CLOUDY    57  51  80 CALM      29.88R


...................COASTAL AND OFFSHORE REPORTS..................

................LOCAL PIERS AND NC RESERVE................


STATION/POSITION TIME  SKY/WX   TEMP    WIND        PRES    VSBY
                                AIR SEA DIR/SP/G
                 (UTC)          (F)     (DEG/KT/KT) (MB)    (MI)
JOHNY MRCER PIER 0012            65 68  360/  3/  4 1009.0R
NC RESRV MASNBRO NOT AVBL
OCEAN CREST PIER 0102            63 68  290/  5/  6 1009.5R
SPRINGMAID  PIER 0000            66 67  320/  2/  2 1009.7S


................COASTAL AND OFFSHORE BUOYS................


STATION/POSITION TIME  SKY/WX   TEMP    WIND        PRES    VSBY
                                AIR SEA DIR/SP/G
                 (UTC)          (F)     (DEG/KT/KT) (MB)    (MI)
DIMNDSHOAL 41025 0050            62 74   30/ 14/ 17 1009.2R
WVE H/P(F/S)=  4/ 8 WND WVE H/P(F/S)=  3/ 5 SWL H/P/D(F/S/D)=  3/ 90/ 8

CAPE LOOKOUT     0100            64     320/ 10/ 11 1009.2R
ONSLOW BAY 41036 NOT AVBL
5 WRITEBCH 41038 0008            65 65  230/  6/ 12 1009.7R
MASONBORO  41110 0019               65                N/A
WVE H/P(F/S)=  2/10 WND WVE H/P(F/S)=  2/10

WILM HARBR 41108 0011               66                N/A
WVE H/P(F/S)=  2/ 3 WND WVE H/P(F/S)=  2/ 3

27WRITEBCH 41037 0000            63 73  260/ 12/ 14   N/A
FRYING PAN 41013 0050            67 71  270/  8/ 10 1010.8R
WVE H/P(F/S)=  3/ 8 WND WVE H/P(F/S)=  2/ 4 SWL H/P/D(F/S/D)=  3/ 90/ 8

SUNST NRSH 41024 0008            66     270/  8/ 10   N/A
CAPRS NRSH 41029 0008            68     290/  4/  8 1010.3R
EDISTO     41004 0050            66 71  200/  4/  6 1011.1R
WVE H/P(F/S)=  3/ 5 WND WVE H/P(F/S)=  2/ 4 SWL H/P/D(F/S/D)=  2/ 5



..........OFFSHORE BUOYS BEYOND 100 NM OFFSHORE...........
.....IN A TRIANGLE---HAT TO BERMUDA TO BAHAMAS TO HAT.....


STATION/POSITION TIME  SKY/WX   TEMP    WIND        PRES    VSBY
                                AIR SEA DIR/SP/G
                 (UTC)          (F)     (DEG/KT/KT) (MB)    (MI)
150E HAT   41001 NOT AVBL
W BERMUDA  41048 0050            67 70  340/ 14/ 19 1005.2R
WVE H/P(F/S)=  7/ 8 WND WVE H/P(F/S)=  5/ 5 SWL H/P/D(F/S/D)=  5/ 8

ATLANTIC S 41049 0050            78 77  230/ 21/ 23 1007.0R
WVE H/P(F/S)=  7/ 8 WND WVE H/P(F/S)=  7/ 8 SWL H/P/D(F/S/D)=  3/280/11

E BAHAMAS  41046 0050            80 81  230/ 10/ 12 1012.1R
WVE H/P(F/S)=  4/ 6 WND WVE H/P(F/S)=  2/ 4 SWL H/P/D(F/S/D)=  3/240/ 6

NE BAHAMAS 41047 0050            78 77  280/ 12/ 16 1008.5R
WVE H/P(F/S)=  6/ 8 WND WVE H/P(F/S)=  3/ 6 SWL H/P/D(F/S/D)=  5/300/ 8

120E CANVRL41010 0020            76 80   10/ 16/ 19 1008.9R

END



USA.gov is the U.S. government's official web portal to all federal, state and local government web resources and services.